Cortez, CO

3:24 PM MDT on July 22, 2017 (GMT -0600)
Cortez Municipal

Weather History for KCEZ - December, 2013

Change the Weather History Date:

Thursday, December 19, 2013

  Actual Average Record
Temperature  
Mean Temperature 39 °F 28 °F  
Max Temperature 53 °F 41 °F 53 °F (2013)
Min Temperature 25 °F 14 °F 1 °F (2016)
Degree Days  
Heating Degree Days 26 37  
Month to date heating degree days 776 681  
Since 1 July heating degree days 2248 2206  
Cooling Degree Days 0 0  
Month to date cooling degree days 0 0  
Year to date cooling degree days 667 426  
Moisture  
Dew Point 24 °F    
Average Humidity 59    
Maximum Humidity 88    
Minimum Humidity 30    
Precipitation  
Precipitation T in 0.03 in 0.19 in (2006)
Month to date precipitation 0.20 0.49  
Year to date precipitation 13.52 13.22  
Sea Level Pressure  
Sea Level Pressure 29.73 in    
Wind  
Wind Speed 8 mph (SE)    
Max Wind Speed 20 mph    
Max Gust Speed 27 mph    
Visibility 10 miles    
Events Rain    
T = Trace of Precipitation, MM = Missing Value Source: NWS Daily Summary

Daily Weather History Graph

Daily Weather History Graph

Search for Another Location

Airport or City:

Trip Planner

Search our weather history database for the weather conditions in past years. The results will help you decide how hot, cold, wet, or windy it might be!

Date:

Astronomy

Dec. 19, 2013 Rise Set
Actual Time 7:24 AM MST 4:59 PM MST
Civil Twilight 6:54 AM MST 5:28 PM MST
Nautical Twilight 6:22 AM MST 6:01 PM MST
Astronomical Twilight 5:50 AM MST 6:33 PM MST
Moon 7:25 PM MST (12/19) 8:47 AM MST (12/19)
Length of Visible Light 10h 34m
Length of Day
9h 35m
Waning Gibbous, 95% of the Moon is Illuminated
Dec 19
Waning Gibbous
Dec 25
Last Quarter
Jan 1
New
Jan 7
First Quarter
Jan 15
Full

Hourly Weather History & Observations

Time (MST) Temp. Windchill Dew Point Humidity Pressure Visibility Wind Dir Wind Speed Gust Speed Precip Events Conditions
12:53 AM 30.0 °F 22.4 °F 26.1 °F 85% 29.84 in 10.0 mi ENE 8.1 mph - N/A   Scattered Clouds
1:53 AM 30.9 °F 22.8 °F 26.1 °F 82% 29.78 in 10.0 mi WSW 9.2 mph - N/A   Clear
2:53 AM 28.0 °F 24.2 °F 24.1 °F 85% 29.78 in 10.0 mi ENE 3.5 mph - N/A   Clear
3:53 AM 27.0 °F 18.7 °F 23.0 °F 85% 29.79 in 10.0 mi NE 8.1 mph - N/A   Partly Cloudy
4:53 AM 25.0 °F 20.7 °F 21.9 °F 88% 29.79 in 10.0 mi NE 3.5 mph - N/A   Clear
5:53 AM 26.1 °F - 21.9 °F 84% 29.78 in 10.0 mi Calm Calm - N/A   Clear
6:53 AM 30.0 °F 24.1 °F 21.9 °F 72% 29.75 in 10.0 mi ENE 5.8 mph - N/A   Clear
7:53 AM 33.1 °F 30.0 °F 23.0 °F 66% 29.75 in 10.0 mi ENE 3.5 mph - N/A   Clear
8:53 AM 39.0 °F 36.8 °F 25.0 °F 57% 29.75 in 10.0 mi Variable 3.5 mph - N/A   Clear
9:53 AM 48.0 °F - 23.0 °F 37% 29.73 in 10.0 mi North - - N/A   Clear
10:53 AM 48.9 °F - 23.0 °F 36% 29.72 in 10.0 mi SSW 13.8 mph 26.5 mph N/A   Clear
11:53 AM 52.0 °F - 24.1 °F 34% 29.69 in 10.0 mi South 16.1 mph 21.9 mph N/A   Mostly Cloudy
12:53 PM 50.0 °F - 21.9 °F 33% 29.65 in 10.0 mi South 11.5 mph - N/A   Partly Cloudy
1:53 PM 50.0 °F - 21.0 °F 32% 29.64 in 10.0 mi SW 17.3 mph - N/A   Mostly Cloudy
2:53 PM 51.1 °F - 21.9 °F 32% 29.64 in 10.0 mi SW 11.5 mph - N/A   Clear
3:53 PM 46.9 °F - 23.0 °F 39% 29.69 in 10.0 mi SSW 11.5 mph - N/A   Overcast
4:53 PM 44.1 °F - 21.9 °F 42% 29.71 in 10.0 mi Calm Calm - N/A   Partly Cloudy
5:53 PM 37.0 °F 32.4 °F 25.0 °F 62% 29.74 in 10.0 mi ENE 5.8 mph - N/A   Mostly Cloudy
6:53 PM 43.0 °F 35.7 °F 27.0 °F 53% 29.72 in 10.0 mi SW 15.0 mph 21.9 mph 0.00 in Rain Light Rain
7:53 PM 37.0 °F 30.4 °F 28.0 °F 70% 29.74 in 10.0 mi SE 9.2 mph - 0.00 in   Mostly Cloudy
8:53 PM 42.1 °F 36.6 °F 28.0 °F 58% 29.71 in 10.0 mi SSW 9.2 mph - 0.00 in   Overcast
9:53 PM 35.1 °F 31.0 °F 28.0 °F 76% 29.69 in 10.0 mi NE 4.6 mph - N/A   Mostly Cloudy
10:53 PM 30.9 °F 26.2 °F 27.0 °F 85% 29.71 in 10.0 mi ENE 4.6 mph - N/A   Clear
11:53 PM 27.0 °F 23.0 °F 25.0 °F 92% 29.70 in 10.0 mi East 3.5 mph - N/A   Clear